カタログに戻る

IUS R/B(2)

運用中GEO
NORAD 20069·ROCKET BODY·🇺🇸 United States

打ち上げ Jun 14, 1989 から Cape Canaveral Space Force Station

Loading…

TLE

最新Source: Space-Track

元期: Sep 14, 2026, 11:53 UTC

1 20069U 89046D   26257.49570539  .00000043  00000-0  00000-0 0  9995
2 20069  12.0928 337.6856 0043831  15.7554 344.3971  1.01297680 27144

AllMySatでIUS R/B(2)をリアルタイム追跡

Download on the App Store